RH
40 40 39 39 40 41 42 42 45 46 44 45 49 52 50 48 47 47 48 49 47 44 38 35 33 30 25 24 23 23 23 27 27 31 35 34 43 46 28 15 16 24 40 54 57 53 61 67 60 53 46 45 50 53 56 58 59 62 63 64 64 62 61 58 57 56 56 58 57 55 52 47 42 39 39 38 39 40 40 42 43 41 40 40 41
38 39 41 42 42 41 42 43 47 51 51 50 50 55 57 55 53 51 52 52 49 46 41 38 36 32 27 23 23 24 22 27 31 31 38 39 42 43 26 14 14 22 39 47 48 53 57 54 39 26 23 30 38 39 44 49 49 54 60 61 61 61 60 58 56 58 60 61 61 59 54 47 41 37 35 35 38 40 39 40 42 40 39 39 39
37 38 40 43 45 45 45 44 47 52 58 60 57 58 62 60 58 56 55 55 51 46 41 38 37 34 30 25 24 26 23 29 34 33 39 42 41 36 25 22 20 25 39 38 42 56 55 41 20 13 24 34 39 37 36 39 41 47 53 53 52 51 51 52 54 58 60 60 63 65 60 57 53 42 35 38 40 40 39 40 41 39 39 38 38
40 39 40 44 49 51 52 50 50 54 61 68 66 64 65 62 60 58 56 56 51 43 38 35 35 34 29 27 26 28 29 33 37 37 40 40 39 34 25 27 26 30 40 34 38 55 55 40 18 17 36 39 37 40 37 38 41 44 46 45 43 42 44 45 46 49 52 59 69 72 65 64 65 55 49 45 35 34 37 38 41 39 37 37 37
42 42 42 46 51 55 57 58 57 59 66 72 71 67 65 61 57 55 53 53 49 41 36 32 32 32 28 27 29 31 34 37 40 41 41 38 38 36 27 25 27 31 38 33 36 50 55 47 25 21 38 38 35 41 40 40 42 42 40 39 39 39 41 41 40 40 43 50 61 70 75 79 75 61 59 54 38 36 39 37 38 37 37 38 38
43 43 45 47 53 58 61 65 66 69 74 77 73 65 61 58 55 53 50 50 47 39 34 31 30 31 29 29 32 35 35 37 40 41 40 38 38 35 26 24 26 28 34 34 36 45 52 51 37 33 39 36 36 42 43 43 41 38 37 39 39 38 38 38 37 35 36 37 41 50 60 69 69 62 67 66 52 47 45 39 36 34 36 38 36
45 44 45 49 54 59 64 71 74 76 77 77 73 65 58 55 54 53 48 45 43 36 32 30 30 31 30 30 34 38 36 36 41 41 40 40 38 32 25 24 26 27 31 33 36 43 49 51 44 41 41 36 39 45 44 42 40 38 39 41 40 38 37 36 35 33 32 31 31 34 36 39 46 54 65 70 65 57 48 45 43 38 37 35 33
50 49 49 52 57 62 68 75 78 76 75 75 74 66 59 54 53 53 48 43 40 36 32 28 28 29 29 30 34 36 35 37 44 44 41 39 35 30 25 24 26 27 30 32 35 41 48 48 41 40 41 37 42 47 42 38 38 39 41 41 40 39 38 36 35 34 34 34 33 34 34 33 35 40 46 55 67 68 56 49 47 41 39 37 36
49 51 52 54 60 67 74 80 81 77 73 72 71 68 61 54 52 50 47 44 40 36 34 30 27 27 28 31 33 34 35 39 44 44 39 36 34 30 25 25 26 28 30 32 34 38 42 41 37 38 40 39 45 46 39 36 36 36 37 38 40 41 40 38 36 35 37 39 37 36 35 34 32 31 30 35 50 63 61 54 48 45 44 41 40
52 51 54 59 67 75 81 84 84 81 75 69 69 69 63 54 51 48 43 43 41 37 36 33 28 26 27 30 32 32 32 37 43 43 38 36 35 30 26 27 27 28 30 31 32 34 36 38 37 38 39 41 45 41 36 36 36 36 37 37 39 40 39 38 38 39 39 39 39 39 38 38 38 37 34 33 42 53 57 54 49 49 49 45 42
60 59 61 68 76 82 86 87 87 84 78 71 67 68 64 53 47 46 42 41 41 38 36 35 31 28 29 32 31 30 32 35 41 43 39 37 36 31 27 28 29 29 30 30 31 32 34 38 39 39 40 41 41 39 39 40 39 39 39 39 40 40 39 39 40 40 40 40 42 43 43 42 43 43 40 39 43 48 50 49 44 43 45 44 42
65 69 71 76 81 85 88 89 88 85 80 71 62 62 63 53 41 41 41 39 40 39 36 35 33 30 31 32 30 30 33 35 38 41 40 39 37 33 29 29 30 30 30 30 31 31 35 38 39 40 41 40 41 42 42 43 44 44 42 42 41 40 40 40 40 40 39 40 43 45 47 47 45 45 43 41 43 44 45 46 42 38 39 38 36
70 76 79 81 83 85 87 89 87 84 80 70 58 54 58 52 38 35 38 37 38 39 37 36 34 31 31 30 30 32 33 32 35 39 40 39 38 35 31 31 31 31 32 32 32 34 36 38 39 41 42 42 44 45 45 46 46 46 45 45 44 43 42 41 41 42 41 41 41 43 48 52 53 52 49 48 46 44 46 50 45 39 38 36 32
77 82 84 84 85 86 87 87 85 81 78 69 57 50 50 47 38 34 36 36 35 36 37 37 35 34 33 30 30 31 31 32 33 36 40 42 41 37 33 32 33 33 34 34 34 36 38 39 40 42 44 45 46 46 47 47 46 47 47 47 47 46 45 45 44 44 44 44 43 43 45 48 52 53 51 50 48 47 50 53 53 51 48 44 43
82 85 85 84 85 87 88 87 84 81 75 67 56 48 45 43 39 36 37 36 34 33 35 37 35 33 33 32 30 31 32 34 34 36 40 43 42 40 37 35 34 35 35 35 36 38 39 41 42 44 45 47 47 46 47 47 48 48 48 48 49 49 48 48 47 46 46 46 45 45 44 45 47 48 48 48 47 48 48 48 52 60 62 57 52
83 85 84 84 84 87 88 86 84 81 74 64 55 47 43 42 41 39 37 36 33 31 30 32 33 33 34 34 31 30 33 34 34 35 38 42 44 43 39 36 36 36 36 37 38 39 41 43 44 46 46 47 47 47 48 48 48 49 49 49 49 49 50 49 49 48 47 47 47 46 46 47 49 49 50 49 48 48 48 48 50 59 69 70 64
82 84 83 83 84 86 87 84 83 81 73 61 52 45 43 44 44 40 36 34 33 30 26 26 29 32 34 35 33 32 33 34 34 34 36 39 44 44 40 38 37 37 38 39 40 42 43 44 45 46 46 47 47 48 49 49 49 49 50 50 50 49 49 48 49 49 49 49 48 48 48 49 50 51 52 53 53 53 53 55 56 57 65 74 75
81 83 82 83 85 86 84 82 80 78 72 59 48 44 43 45 44 38 35 34 33 31 27 25 27 31 34 34 34 34 34 35 35 36 37 39 41 42 41 39 39 39 40 41 42 43 44 44 45 46 46 47 48 48 49 49 50 51 51 51 51 50 50 49 49 48 49 49 49 49 50 50 52 53 54 55 57 58 59 59 61 60 62 70 75
80 80 79 79 82 83 81 80 77 75 70 57 47 44 44 44 42 37 35 35 34 32 29 26 27 30 33 34 35 35 35 35 36 37 38 39 40 40 40 40 41 42 42 43 44 45 46 46 46 47 47 48 49 50 50 51 52 53 53 53 52 52 52 51 50 50 50 50 50 51 52 53 54 54 56 58 59 62 63 63 66 66 66 69 71
77 75 73 70 72 74 75 77 73 70 67 56 47 46 45 43 39 36 37 36 34 33 31 28 28 30 32 33 34 34 35 36 37 38 38 39 40 40 41 42 42 43 44 45 46 47 47 48 48 49 49 51 52 52 53 54 54 55 55 55 55 54 55 54 54 54 53 53 53 54 54 55 57 58 60 62 63 65 65 66 68 69 70 72 70
74 71 69 65 64 66 70 73 70 66 62 52 45 44 43 41 38 36 37 35 34 34 32 31 30 30 32 33 34 34 35 37 37 38 39 39 40 42 43 43 43 44 45 46 47 48 49 49 50 51 52 53 55 56 57 57 57 57 57 57 58 58 59 59 59 59 58 58 58 57 58 58 60 62 64 66 68 69 70 70 72 74 75 76 77
71 68 65 61 58 57 61 65 64 61 56 48 43 42 41 39 38 37 36 34 34 33 33 33 31 31 33 33 34 35 35 37 37 38 39 40 42 43 43 43 44 45 47 48 50 50 51 51 52 53 54 56 58 59 59 59 59 60 60 62 63 64 65 65 64 64 64 64 64 63 64 64 65 67 69 71 72 72 73 75 76 79 81 81 80
68 64 60 55 49 45 44 49 54 54 50 46 43 40 39 38 37 37 36 35 34 33 33 34 33 32 33 34 35 35 36 37 37 39 40 41 42 42 42 43 45 47 49 50 52 52 53 54 55 56 57 59 61 61 62 62 63 65 67 68 69 69 70 69 69 69 69 70 71 71 71 71 72 74 75 75 76 76 78 80 81 82 84 84 82
58 54 50 46 42 39 37 41 48 49 46 44 41 39 37 37 37 37 37 36 34 32 32 34 34 33 33 34 35 35 36 37 38 39 40 41 41 42 43 45 47 50 52 52 54 54 55 57 59 60 62 63 64 65 64 65 66 69 71 73 74 74 73 74 74 75 76 76 77 77 79 79 79 80 81 81 83 84 84 86 87 86 87 86 83
49 48 46 43 41 40 37 38 43 46 45 43 40 38 37 37 38 38 38 36 32 30 31 33 34 34 34 35 35 36 37 37 38 40 40 41 42 43 45 48 51 53 54 55 55 56 58 62 64 66 67 68 68 68 69 69 70 72 74 75 75 75 76 78 80 81 82 83 85 86 87 87 88 89 90 91 91 92 91 91 91 89 88 87 85
41 43 44 43 41 39 36 35 38 43 45 44 40 38 37 38 39 39 39 36 32 30 30 32 33 34 35 36 36 37 37 38 39 40 41 42 44 46 49 51 53 54 56 58 59 62 64 66 68 69 70 71 72 72 72 72 71 73 75 75 75 77 80 84 86 87 88 90 93 96 96 95 95 96 96 96 96 95 96 96 95 93 92 90 88
36 36 38 40 39 38 36 34 34 37 41 43 41 38 38 40 41 40 40 37 32 30 30 32 33 34 36 37 38 38 38 39 40 41 43 45 46 49 52 53 55 57 61 63 65 68 70 71 73 74 74 75 76 75 74 74 74 74 73 72 72 77 82 87 91 92 93 95 96 97 98 97 97 97 97 97 97 98 98 98 98 98 97 96 94
36 35 37 38 39 39 37 35 34 35 38 42 41 39 40 41 41 42 42 38 34 31 31 33 34 36 37 38 38 39 39 39 41 43 46 47 50 53 55 57 60 63 66 69 72 74 76 78 78 77 76 75 76 77 75 72 70 68 69 72 76 80 86 90 95 96 96 96 97 96 96 96 96 96 96 96 96 97 98 99 99 99 100 101 100
34 35 36 37 38 39 38 36 36 36 37 41 41 40 41 42 42 43 42 40 36 33 32 34 35 37 39 39 39 39 40 41 44 46 48 50 53 55 58 62 66 70 73 75 75 75 76 76 75 73 73 74 78 79 72 68 72 76 81 88 92 94 96 98 99 99 98 98 98 98 97 96 95 94 93 93 93 95 98 100 100 99 100 101 102
35 36 37 38 39 40 39 38 38 37 38 39 40 41 42 43 44 44 43 40 36 34 33 34 36 38 39 40 40 40 42 44 47 49 51 53 55 59 64 67 71 74 74 73 72 72 72 73 72 72 72 75 79 73 65 74 91 96 97 99 100 100 100 100 101 100 100 100 99 99 97 95 94 94 93 94 95 97 100 102 101 100 101 102 102
37 38 39 40 42 43 41 40 39 39 39 39 40 42 44 46 47 46 45 42 38 35 34 35 38 39 41 41 41 43 45 47 50 52 54 56 59 65 69 71 74 76 72 71 73 73 73 72 73 74 74 76 75 66 67 88 103 102 100 100 100 100 100 100 101 101 101 101 99 99 98 96 96 97 97 97 97 98 100 102 101 100 100 99 100
39 40 42 43 44 45 44 42 40 40 41 42 43 45 46 48 48 48 47 43 40 37 36 37 39 40 42 43 44 46 48 49 52 55 57 61 65 69 72 75 78 77 73 73 75 75 75 73 74 77 75 76 72 62 71 97 105 97 97 100 100 100 100 101 101 100 101 100 98 98 98 98 98 98 97 97 96 97 97 98 98 97 92 84 82
42 43 45 46 45 44 43 42 41 41 43 45 47 48 49 50 50 50 48 44 41 39 38 39 40 41 44 45 46 49 51 53 55 57 60 65 70 74 76 78 79 78 76 77 77 78 77 74 75 76 73 74 68 53 66 97 104 92 88 93 99 101 100 101 101 100 101 100 99 99 98 97 95 92 92 93 94 93 92 92 93 92 88 77 68
45 44 45 44 43 42 42 41 42 44 46 48 50 51 51 52 52 51 49 45 43 41 40 41 43 44 47 48 50 53 54 57 59 62 66 70 74 77 78 77 79 79 79 81 80 80 78 73 72 72 72 74 62 49 65 97 104 90 74 74 90 101 100 100 101 100 101 100 99 98 97 96 94 92 93 93 90 89 90 92 92 89 87 82 79
46 46 45 44 44 44 44 44 46 48 51 54 55 54 54 54 54 54 51 48 45 43 43 44 45 48 50 52 55 57 58 61 63 66 71 75 78 80 78 77 79 79 81 83 82 82 79 72 68 68 73 73 58 52 77 103 103 85 64 63 86 102 101 100 101 98 96 97 96 94 94 94 92 91 92 89 87 89 91 92 92 90 88 88 90
47 48 47 47 48 49 50 51 52 54 56 58 59 59 59 58 58 56 53 50 48 46 46 47 49 51 53 56 59 61 62 65 66 70 75 77 79 79 76 77 82 82 83 83 83 82 80 74 70 70 76 76 60 56 82 104 94 73 64 77 98 103 99 100 100 96 92 92 92 91 90 90 89 90 89 84 83 86 88 90 92 92 92 93 93
48 48 48 48 50 53 55 56 57 58 60 61 62 63 63 62 60 57 53 51 49 49 50 52 53 56 58 60 63 65 66 68 70 74 77 78 80 79 78 82 86 86 86 84 83 83 80 76 75 74 77 80 67 57 76 101 91 65 66 91 104 100 100 102 100 97 94 90 89 87 87 88 88 89 88 84 80 81 85 91 96 96 96 96 94
50 50 49 49 52 56 60 60 59 59 61 63 65 66 65 64 61 57 54 52 52 53 55 56 58 60 63 65 68 69 70 72 75 77 80 83 84 83 83 85 86 87 87 85 84 85 81 79 78 77 79 83 75 60 67 94 96 67 62 89 103 100 102 102 100 100 94 87 85 84 83 85 86 86 83 80 79 81 88 96 99 98 99 98 92
50 48 48 52 58 63 65 63 60 61 63 65 67 68 68 66 62 58 56 55 56 58 58 60 63 65 67 70 71 72 73 76 79 81 84 87 88 86 86 85 85 87 88 88 90 90 88 83 79 79 79 79 75 60 49 73 94 78 68 90 104 100 100 101 98 97 91 86 87 87 84 82 79 79 79 78 80 85 92 99 100 98 98 96 91
49 48 52 60 66 68 68 66 65 66 67 68 70 71 71 69 65 61 60 60 61 62 63 67 70 71 73 74 74 76 77 79 83 86 88 91 91 90 88 86 86 89 92 95 95 92 90 85 78 78 76 69 67 59 49 71 99 92 83 99 105 99 101 103 98 95 95 95 93 89 85 80 75 76 79 79 80 84 89 96 100 99 98 96 93
50 52 57 66 72 71 70 71 70 71 72 72 73 73 72 70 67 65 65 65 66 68 70 74 77 77 77 77 78 80 81 82 86 91 96 98 94 88 86 86 88 93 97 99 96 91 92 88 78 77 75 67 64 64 63 82 104 101 94 101 103 101 103 102 100 100 100 96 90 85 82 79 76 79 81 82 85 87 89 94 98 100 99 98 97
55 57 61 71 78 78 76 75 74 75 76 75 75 74 72 70 68 67 67 69 71 74 76 79 81 81 81 81 82 83 83 84 88 94 100 99 90 84 84 87 91 97 101 101 97 93 93 90 82 79 78 72 68 68 71 85 100 101 99 101 101 102 102 100 103 103 97 92 89 85 83 79 78 82 86 88 90 90 90 94 98 100 99 98 99
61 65 70 77 82 83 82 81 79 78 78 78 79 76 73 72 70 68 69 72 75 77 81 84 85 84 83 83 83 84 85 87 92 97 100 97 90 87 90 92 95 101 103 102 99 95 94 93 90 87 83 78 74 73 75 82 89 92 96 99 100 99 98 99 103 101 94 92 90 85 83 81 82 87 89 87 88 90 94 98 99 100 100 100 101
67 73 76 79 81 82 82 81 80 81 81 81 81 78 75 74 73 71 73 77 78 80 84 88 88 88 87 87 87 88 90 93 96 98 101 100 96 95 96 94 96 100 104 103 101 98 97 96 93 89 85 82 79 76 75 78 82 85 90 96 97 97 96 99 101 97 92 91 89 86 85 86 89 92 90 86 87 93 98 100 100 101 102 102 102
72 77 78 80 83 84 82 79 79 82 84 83 81 79 78 77 75 76 79 81 82 85 88 91 93 93 93 93 94 96 97 98 99 101 103 103 100 99 98 94 94 99 103 103 101 98 95 92 89 88 86 82 80 79 77 77 78 80 84 89 92 93 92 95 99 96 90 87 85 84 84 88 93 93 88 86 88 92 94 96 99 102 102 102 102
77 81 83 84 84 83 82 81 83 85 86 84 82 81 82 82 81 83 84 84 86 88 90 92 95 97 97 98 100 101 100 100 100 101 102 102 100 100 99 95 95 99 100 99 97 94 92 89 86 85 84 83 82 81 79 76 75 76 78 80 82 83 87 93 95 91 85 82 81 83 88 94 95 90 84 84 86 87 90 92 94 96 97 99 101
80 84 84 82 81 84 85 86 88 89 87 87 85 84 85 86 87 89 89 90 92 95 96 96 97 99 100 101 102 103 102 102 101 100 101 101 99 99 99 98 97 98 99 98 95 92 90 88 85 82 82 83 84 84 83 81 78 77 76 74 76 84 92 97 96 92 90 89 89 94 98 95 86 80 79 81 82 83 84 87 90 92 93 97 101
78 79 82 82 84 89 90 91 92 91 88 88 89 89 89 89 91 94 95 97 99 100 100 100 101 102 103 103 103 103 102 101 101 100 100 99 95 94 95 94 91 91 93 93 90 88 86 82 81 83 84 86 89 90 88 84 81 80 81 84 89 97 102 102 100 98 97 98 99 100 95 82 75 77 80 80 81 82 83 86 88 90 92 95 98
74 75 80 83 85 90 92 93 95 93 90 89 90 91 92 93 96 99 100 101 102 101 101 102 102 103 104 103 102 102 101 100 101 100 98 95 91 89 89 86 82 82 85 86 85 84 83 81 83 86 89 95 98 93 90 92 93 92 93 97 101 103 103 103 102 98 96 99 102 96 84 77 78 81 82 83 84 86 87 88 89 90 93 94 95
75 78 82 83 86 91 93 94 94 92 93 94 94 94 95 96 98 101 102 103 103 102 101 101 101 101 102 101 101 101 100 100 100 99 98 95 91 90 94 95 93 92 93 95 96 95 93 93 96 96 96 99 99 96 97 99 90 81 87 98 101 101 101 100 99 98 98 101 98 87 80 81 83 82 83 86 88 89 91 91 91 92 93 93 95
78 83 86 88 90 94 95 95 94 93 94 96 96 96 97 98 99 101 103 104 104 103 102 101 100 100 100 100 101 100 99 99 98 97 97 96 93 92 95 99 103 103 101 100 100 98 94 92 95 101 103 102 101 101 99 92 78 72 86 100 101 99 100 98 96 100 103 98 90 83 81 83 83 83 86 87 88 90 93 94 94 93 92 93 96
Wind_Speed
11 13 12 13 12 12 13 13 14 16 16 15 17 18 17 15 14 15 14 15 19 20 17 17 16 17 16 13 11 10 8 8 7 8 10 10 9 10 12 12 11 10 10 10 9 9 9 8 8 9 10 10 11 11 11 12 12 13 13 13 13 14 15 13 14 17 18 18 17 18 19 20 20 21 22 23 22 23 24 21 18 17 17 16 16
10 11 11 11 10 10 10 10 11 13 13 13 13 13 14 14 12 12 12 13 17 19 17 16 14 14 15 13 11 10 8 8 8 8 9 9 8 10 13 13 11 10 10 10 9 10 10 9 11 12 12 11 11 11 11 12 12 12 14 13 12 13 14 13 15 16 14 15 14 13 16 17 16 18 19 18 15 16 20 20 15 15 16 17 16
7 8 9 9 8 8 8 8 8 8 9 10 10 9 11 13 11 10 11 12 15 18 17 17 14 13 15 14 11 10 8 7 8 8 7 8 9 10 12 12 12 10 9 10 9 9 11 12 13 13 11 11 12 12 11 11 12 12 12 12 12 13 13 12 14 14 15 18 15 8 7 8 10 12 14 14 11 12 12 13 12 15 17 17 16
5 6 7 7 6 6 6 6 6 5 5 7 8 8 8 11 11 11 11 12 14 17 18 17 16 15 16 15 12 10 9 7 7 7 6 8 10 11 12 11 11 10 9 9 8 9 11 12 14 12 11 11 11 12 11 11 13 12 11 11 12 14 14 14 14 13 15 15 10 5 5 6 5 5 13 18 19 15 11 9 11 16 18 19 17
4 4 5 6 5 5 5 4 4 3 2 4 7 8 8 9 11 11 12 12 14 16 18 18 17 16 16 15 12 10 9 7 7 6 7 9 9 10 12 10 10 9 8 9 8 8 12 13 14 13 11 11 11 11 11 11 12 12 12 12 12 13 15 16 14 12 12 12 10 7 5 3 3 7 14 15 15 15 14 14 15 16 16 16 17
4 4 5 6 6 6 4 4 3 2 1 2 5 8 9 10 11 11 12 12 13 15 16 16 16 14 14 13 10 8 8 7 7 8 9 10 9 10 12 10 10 9 8 9 8 8 10 12 14 13 12 12 12 11 11 11 12 12 12 12 12 12 14 16 15 13 12 13 12 11 10 8 8 10 8 6 10 15 17 17 18 19 19 17 18
4 5 7 7 7 7 6 5 4 3 1 1 4 7 8 9 9 9 10 10 11 13 14 14 13 12 11 10 7 7 8 8 8 9 9 9 9 10 11 10 9 8 8 9 8 8 9 10 12 12 12 12 12 11 11 11 13 13 12 12 12 12 13 15 15 15 14 13 13 14 16 16 16 12 6 5 8 11 13 16 19 20 20 21 22
5 5 8 10 10 9 9 7 5 2 0 1 2 4 6 8 7 7 7 8 9 11 12 12 11 11 10 8 6 7 8 9 9 9 8 9 9 9 10 10 9 8 8 8 9 8 7 9 12 12 11 12 11 10 11 12 13 13 12 12 12 12 12 14 15 15 15 15 14 15 16 17 18 17 14 11 7 6 10 13 17 19 20 22 23
6 7 9 12 11 9 9 7 5 3 1 1 2 3 4 5 5 5 5 6 8 10 11 11 11 10 8 6 6 7 8 9 9 9 9 9 8 9 10 9 9 8 8 8 8 8 7 9 12 11 11 11 10 10 11 12 12 12 12 12 13 13 13 13 14 15 15 16 16 16 17 17 18 19 20 18 11 9 9 7 11 16 18 20 21
8 10 10 10 9 8 8 8 7 6 4 3 3 2 3 3 3 4 5 6 8 9 10 11 10 9 7 6 7 8 8 9 9 9 9 8 8 8 9 8 9 8 8 8 8 8 9 10 11 10 10 10 10 10 11 12 12 12 12 12 13 13 13 12 14 15 16 16 16 16 17 16 15 13 14 16 13 11 9 8 10 12 12 15 18
7 10 10 8 8 9 9 9 9 9 7 5 5 5 5 4 4 5 5 7 8 8 9 10 9 8 7 6 7 8 8 9 9 9 9 8 8 7 8 9 9 9 9 8 8 9 10 10 10 10 10 10 10 11 11 12 12 12 12 12 12 12 13 14 15 15 15 15 15 15 16 15 14 12 12 15 12 9 9 8 11 14 16 17 18
7 7 8 9 10 11 12 13 12 12 10 9 8 8 8 6 6 6 6 7 8 9 10 10 9 8 7 7 7 7 8 8 9 9 9 8 8 7 9 9 9 9 9 9 9 10 11 11 11 11 10 10 11 12 12 12 12 13 13 12 13 13 14 14 15 15 15 16 16 16 17 17 17 16 16 18 16 14 13 8 10 16 16 19 21
7 6 7 10 12 13 15 16 15 14 14 12 11 10 10 8 7 8 8 8 9 10 10 9 9 9 8 8 8 8 8 8 9 10 9 8 8 8 9 9 10 10 9 10 10 10 11 12 12 11 11 12 13 13 13 12 13 13 13 13 13 14 14 15 15 16 15 16 17 17 17 17 18 18 18 19 19 20 17 10 13 17 14 17 22
7 6 7 10 13 15 17 18 17 17 16 14 13 12 11 10 9 8 9 8 9 10 10 9 9 9 9 9 8 8 8 8 9 9 9 9 8 8 9 10 10 10 10 11 11 11 12 13 12 12 13 13 13 13 13 13 13 14 14 14 14 14 15 15 15 16 16 17 18 18 18 18 18 18 19 20 19 19 17 13 13 14 14 17 19
7 7 9 12 15 17 18 18 18 18 17 16 15 14 12 11 10 9 9 9 9 10 10 10 10 9 10 10 9 9 9 9 9 9 9 9 9 9 10 10 11 11 11 12 12 13 14 13 13 13 14 13 13 14 14 14 14 14 14 15 15 15 15 16 16 17 18 18 18 18 19 19 19 19 18 19 19 18 19 18 15 10 10 12 12
8 8 9 13 17 18 19 19 19 18 17 17 17 16 14 11 11 10 10 10 10 10 10 11 11 10 11 11 10 10 10 10 10 9 10 10 11 11 11 11 11 12 12 12 13 13 14 14 14 14 14 14 14 14 14 15 15 15 16 16 16 16 16 17 17 17 18 18 18 18 19 19 19 18 18 19 19 19 19 20 18 12 9 8 7
9 9 10 15 17 19 21 20 19 18 19 19 19 19 16 12 12 12 11 11 11 10 11 12 12 12 12 12 12 11 11 11 10 10 10 11 11 11 11 11 11 12 12 13 13 14 14 15 15 15 14 14 15 15 15 15 15 16 16 16 17 17 17 18 18 18 18 18 18 18 19 20 19 18 19 19 19 20 20 20 19 17 13 9 7
10 10 12 16 17 19 20 20 20 21 21 21 21 19 17 14 13 13 13 12 12 12 12 12 12 12 13 12 12 12 11 11 11 11 11 11 11 11 11 12 12 12 13 13 14 15 15 15 15 15 16 16 16 16 16 16 16 16 16 17 17 17 17 18 17 17 18 18 19 20 20 21 20 19 20 20 20 20 21 21 20 20 18 13 9
9 8 9 12 15 18 19 20 23 23 23 23 21 19 17 14 13 14 14 13 13 14 13 12 12 13 13 12 12 12 12 11 11 11 11 11 11 11 12 12 13 13 13 13 14 15 15 15 15 16 16 16 16 17 17 17 17 17 17 17 17 17 17 18 18 18 19 19 20 21 21 20 20 20 20 20 20 20 20 20 19 19 19 19 17
9 8 7 11 16 18 20 23 25 24 24 24 22 20 18 16 15 15 14 14 14 14 14 13 13 14 14 13 13 13 13 12 12 12 12 12 12 12 13 13 12 12 13 14 15 15 15 16 16 16 16 17 18 18 17 17 17 18 18 18 18 17 18 20 20 19 19 20 20 21 21 21 20 21 21 21 20 20 20 20 20 21 21 21 22
9 8 8 13 18 22 25 28 26 23 23 23 22 20 18 16 16 16 15 15 15 16 15 15 14 14 14 15 14 14 14 13 13 13 13 13 13 13 13 13 12 13 13 14 15 15 15 16 16 16 17 18 18 18 18 17 18 18 18 19 19 19 20 20 20 21 20 20 21 22 22 22 21 21 22 22 21 21 21 22 22 22 23 22 22
9 9 10 15 20 22 24 24 22 21 21 21 21 20 18 17 17 17 16 16 16 16 16 16 15 15 15 15 15 14 14 14 14 13 14 14 14 13 13 13 13 14 14 15 15 15 15 16 17 17 18 18 18 18 18 17 18 19 20 20 20 20 20 21 21 22 21 21 21 22 23 22 22 22 23 22 22 23 22 24 24 23 24 23 21
10 11 13 17 19 18 17 16 18 20 21 20 20 20 19 19 18 17 17 16 16 16 17 16 15 16 16 15 15 15 14 14 14 14 15 15 14 13 13 13 14 15 15 15 15 15 16 16 17 18 18 18 18 17 18 18 19 21 22 22 21 21 21 22 22 23 22 22 22 24 24 23 22 23 23 23 23 24 24 25 26 25 25 25 23
10 10 12 15 16 15 14 13 17 20 21 22 22 21 20 19 18 18 18 17 16 16 16 16 16 16 16 16 15 15 15 15 15 15 15 14 14 14 14 14 15 15 15 15 15 15 16 17 18 18 18 18 18 18 19 20 21 22 22 22 22 22 23 24 24 24 24 24 24 25 25 24 24 24 25 24 24 25 25 25 26 26 25 26 26
9 10 10 12 13 14 14 14 17 20 21 21 22 21 20 19 18 18 17 16 16 16 16 16 16 16 16 16 16 15 16 16 15 15 15 14 14 14 14 14 14 15 15 15 15 16 17 17 17 18 18 19 19 20 20 21 22 23 23 23 24 25 25 25 26 26 25 25 25 26 26 25 24 25 25 25 25 25 26 25 24 25 24 25 25
9 9 9 9 10 12 14 14 14 18 20 20 19 20 19 18 18 18 17 16 16 15 15 16 16 16 16 16 16 15 16 15 15 15 14 14 14 14 14 14 14 14 15 15 16 17 17 17 18 18 19 20 20 21 22 23 24 24 24 25 26 26 27 26 26 26 25 25 24 25 25 24 24 26 26 27 28 28 28 27 25 26 25 25 26
9 9 9 9 10 12 14 15 14 15 18 20 19 18 18 17 17 18 17 16 16 15 15 16 16 16 16 16 16 15 15 15 14 14 14 14 14 14 14 14 14 14 15 16 17 17 17 18 19 19 19 20 21 22 23 24 24 25 26 27 28 28 28 27 26 26 25 25 25 25 27 27 28 30 31 31 32 31 31 30 30 29 28 27 27
9 10 9 10 10 11 12 14 14 15 16 18 18 17 17 16 17 17 17 16 16 15 16 16 17 17 17 16 15 15 15 14 14 13 14 14 14 14 14 14 15 15 17 17 17 17 18 19 20 20 20 21 22 23 24 25 26 26 27 27 28 28 28 28 28 28 28 28 29 29 30 31 33 34 35 35 35 34 33 33 33 32 31 29 28
10 10 10 10 9 8 10 12 13 15 15 15 15 15 15 15 16 17 17 16 16 16 16 17 17 17 17 16 15 14 14 14 13 14 14 14 14 14 14 15 15 16 17 18 18 19 20 21 21 22 22 22 23 24 25 26 26 27 27 27 28 29 30 32 32 33 33 31 31 32 32 34 35 36 37 37 38 38 37 36 35 34 32 32 30
12 12 11 11 10 10 11 12 13 13 13 12 13 12 13 14 15 16 16 16 15 16 17 17 18 18 17 16 15 15 15 14 14 15 14 15 15 15 15 16 16 18 19 19 20 20 20 21 22 23 24 24 25 26 27 26 25 25 27 29 30 31 31 32 31 31 31 29 29 30 32 34 35 36 37 38 39 40 39 39 39 37 36 33 30
13 12 11 10 10 10 11 12 12 12 13 13 13 12 12 13 14 15 16 16 16 17 17 18 18 18 17 16 16 16 16 16 16 16 15 16 16 16 17 18 18 19 20 20 20 20 20 21 22 24 25 25 26 27 26 26 25 26 28 29 30 30 28 27 27 26 27 27 28 30 32 33 34 34 36 37 39 40 40 39 40 40 40 39 36
13 12 11 11 10 10 11 12 12 13 14 13 11 11 12 13 14 15 16 16 17 18 18 18 18 17 17 17 16 16 16 16 16 16 16 16 17 18 18 19 19 20 20 20 20 20 21 22 22 24 25 26 27 27 26 26 26 27 28 29 30 31 29 27 26 27 28 29 30 31 31 31 32 32 34 35 36 37 37 38 38 39 40 40 40
12 12 11 11 11 12 13 14 14 15 14 12 10 10 12 14 14 15 15 16 17 18 18 18 18 17 17 17 17 17 16 17 17 17 17 17 18 18 18 19 19 20 20 20 20 21 22 22 23 24 25 27 27 27 27 26 27 28 29 30 31 32 30 27 27 27 28 29 30 30 30 31 32 32 33 33 33 33 34 34 35 35 36 36 38
11 11 11 12 14 17 17 16 17 16 14 12 11 13 14 15 15 15 15 16 18 18 18 18 18 18 18 17 17 17 17 17 17 17 17 18 18 19 19 19 20 19 20 20 20 21 22 22 23 24 26 28 27 27 27 26 27 29 29 29 30 30 28 27 27 26 26 27 28 29 30 31 32 32 32 33 33 33 33 33 32 32 32 34 35
11 12 13 15 18 20 19 19 18 16 14 12 12 13 14 14 14 15 16 17 18 18 18 18 18 18 18 17 17 17 17 17 17 17 17 17 18 19 20 20 19 19 20 20 21 22 22 23 24 25 27 28 27 27 26 26 28 29 29 28 29 28 27 26 26 25 26 27 28 28 30 31 32 32 32 33 34 34 33 32 31 30 31 32 33
13 15 17 20 20 19 18 19 17 14 12 11 11 11 12 13 14 15 17 18 18 18 18 18 18 18 18 17 17 17 17 17 17 17 17 18 19 20 20 19 19 20 20 21 22 22 23 24 25 25 26 28 28 27 26 27 28 29 28 28 28 27 25 26 26 25 25 26 27 28 29 30 31 32 33 34 34 34 33 31 30 30 32 32 33
20 24 25 26 23 17 15 15 11 9 9 8 9 10 11 13 14 15 17 18 18 18 18 18 19 19 18 18 17 17 17 18 17 18 19 20 20 20 20 19 19 20 21 22 22 23 23 24 25 25 26 28 29 28 27 27 28 29 28 28 27 26 26 26 25 24 24 25 25 26 27 30 32 32 33 33 33 33 31 29 29 30 32 33 33
26 26 27 26 22 16 13 11 6 5 6 6 7 10 12 14 15 16 17 18 17 18 19 19 19 18 17 17 17 18 18 18 18 19 20 20 20 20 19 19 20 21 22 23 23 23 24 24 24 25 25 27 30 30 28 28 28 27 27 27 27 26 25 24 22 21 22 23 25 25 27 29 31 31 31 31 31 32 31 29 28 30 32 32 33
26 26 25 20 16 13 10 7 6 6 7 8 9 12 13 15 16 17 17 18 18 19 19 19 18 17 17 17 17 18 18 18 19 20 20 20 19 20 20 21 21 22 23 23 22 23 24 24 24 26 26 27 30 30 29 27 27 26 26 27 27 25 22 20 20 21 22 23 24 25 26 27 28 29 30 31 32 32 31 31 31 32 31 30 31
25 26 24 16 12 11 8 6 7 8 9 10 11 13 14 16 17 17 18 18 19 19 19 18 18 17 17 17 17 18 18 19 19 19 19 19 19 20 21 22 22 22 22 22 22 23 25 26 26 26 27 27 29 30 28 26 26 26 26 25 24 22 20 20 21 22 22 22 22 23 24 24 26 29 32 34 34 33 34 34 34 31 28 28 32
25 27 25 17 11 9 7 7 8 8 9 10 11 13 14 15 16 17 18 19 19 18 18 17 17 16 17 17 18 18 18 18 19 19 18 19 20 21 22 22 23 22 22 23 24 24 26 27 27 27 27 27 26 27 27 25 24 25 25 24 23 22 21 22 23 20 19 20 21 23 24 25 26 29 32 34 34 35 36 35 32 29 28 31 33
27 29 28 20 12 8 7 8 9 9 9 10 11 12 14 14 15 17 18 18 17 17 17 16 16 16 17 17 17 17 17 18 18 18 19 20 21 22 23 23 23 23 23 23 25 25 27 28 28 27 26 25 24 24 26 24 23 23 24 25 24 23 23 23 20 17 19 22 23 24 26 26 28 30 32 33 34 35 36 33 30 30 31 33 32
29 28 24 19 15 12 10 10 10 11 11 10 11 12 13 14 16 17 17 16 15 15 16 16 16 17 17 17 18 18 19 19 20 20 20 22 23 23 22 23 23 23 23 23 25 25 26 27 27 26 25 24 23 23 24 23 22 23 24 25 25 25 24 22 20 20 23 25 25 26 27 28 30 31 32 33 35 35 33 31 30 31 32 31 30
29 25 22 20 18 15 14 14 14 12 11 10 10 12 13 14 16 16 15 15 15 15 15 16 17 18 18 19 19 19 20 20 20 21 21 22 22 22 22 23 23 23 23 23 24 24 23 23 24 24 24 23 23 23 22 22 22 22 24 25 26 25 24 22 21 23 26 27 27 28 29 30 30 31 33 35 35 33 31 31 31 31 30 28 27
27 25 22 21 20 19 19 20 17 13 10 10 10 11 13 15 16 15 14 15 15 15 15 17 18 18 18 19 18 19 19 20 20 21 21 21 22 22 22 23 22 22 22 22 23 22 22 22 23 24 24 24 23 23 22 22 23 23 24 24 24 25 25 23 23 25 27 27 27 28 29 29 29 31 33 35 33 30 29 30 29 28 26 25 25
25 23 22 22 22 21 20 18 14 11 9 10 11 12 13 15 15 15 15 15 15 15 16 18 19 19 19 19 19 19 20 21 21 21 21 21 21 21 22 22 22 22 22 22 23 22 22 22 23 24 25 24 23 23 22 23 24 25 25 25 25 25 24 23 24 27 27 26 27 28 27 26 27 29 31 30 28 27 28 27 26 25 24 24 24
23 23 23 24 23 22 18 15 12 10 10 11 12 13 13 14 14 14 15 15 15 15 16 18 19 19 19 19 19 20 20 20 20 20 19 20 20 21 21 22 22 22 22 22 23 23 22 22 23 24 24 24 23 23 23 24 25 26 26 27 27 26 23 23 25 26 25 26 27 25 23 24 27 28 27 25 25 26 26 25 24 24 24 23 22
24 26 25 24 22 20 16 13 12 11 12 12 12 13 14 14 14 14 14 14 15 16 17 18 19 19 19 19 18 19 19 19 19 19 19 20 21 21 21 23 23 23 23 23 23 24 24 25 25 25 24 23 23 23 23 24 25 26 28 27 25 23 23 23 24 25 25 26 25 23 23 26 26 24 22 23 24 24 24 24 24 24 24 23 21
27 27 24 22 21 18 15 13 13 13 13 13 13 14 14 14 14 14 13 14 15 16 17 18 18 18 19 19 19 19 19 19 20 20 20 21 21 21 22 25 26 26 25 26 26 28 29 29 28 26 24 22 23 25 25 24 25 26 26 25 23 23 23 23 23 25 26 24 21 21 24 23 21 20 20 21 22 22 23 23 23 23 23 23 22
27 25 22 20 19 17 15 13 14 14 14 14 14 14 14 13 13 14 13 14 15 16 16 17 18 18 18 18 18 18 18 18 19 19 20 20 21 21 22 24 26 27 26 26 27 30 32 32 30 29 28 26 27 29 28 25 27 28 26 24 23 24 24 25 25 25 23 19 17 20 21 19 18 18 18 19 20 21 22 23 23 23 23 22 21
25 23 20 19 17 15 14 13 14 15 15 14 15 15 15 14 14 14 14 15 16 16 16 17 17 17 17 17 17 17 17 17 18 18 19 20 21 22 23 23 24 25 25 26 27 29 31 30 29 28 27 27 27 28 27 26 27 28 26 24 24 24 25 25 24 20 16 15 16 17 17 16 17 17 17 17 19 20 20 21 22 23 22 21 20
Wind_Direction
92 82 77 75 74 73 70 68 63 60 59 56 54 54 55 52 45 42 33 24 27 30 27 20 14 9 9 6 355 351 348 335 329 327 325 335 342 331 335 343 347 355 356 356 354 348 345 334 326 328 328 334 336 331 331 329 328 328 326 324 324 322 320 315 316 319 313 309 307 306 303 298 295 291 284 282 279 275 267 261 264 269 265 265 272
101 91 83 80 78 77 74 70 65 60 59 58 55 51 52 54 49 41 33 21 20 25 25 21 15 5 3 360 347 338 336 326 317 321 322 327 333 323 329 342 346 354 356 351 354 346 330 322 327 332 333 337 337 334 334 329 327 331 330 329 327 324 321 315 321 330 328 322 322 314 305 302 301 299 294 290 293 293 271 253 255 265 263 265 269
109 102 97 90 84 83 81 78 74 65 59 60 61 52 44 47 47 39 30 19 16 18 19 18 12 2 359 357 350 336 328 319 307 310 316 318 322 323 332 343 345 354 353 343 354 345 323 325 334 341 344 344 341 336 334 332 332 333 332 334 335 329 323 315 319 331 335 331 327 312 303 316 308 305 311 305 311 323 292 259 258 265 264 266 264
124 119 116 110 103 99 94 93 93 85 60 51 57 55 41 38 37 33 27 18 13 12 13 12 7 359 355 354 350 339 328 317 305 301 305 313 318 324 336 344 340 347 344 335 352 339 317 324 337 344 347 343 340 335 332 333 334 334 334 337 338 334 328 320 316 318 325 329 326 307 306 311 289 326 339 315 302 310 308 290 283 276 269 263 259
141 140 141 138 133 125 117 116 114 109 76 31 42 46 38 31 28 25 22 15 9 8 7 6 4 357 352 351 347 340 331 316 311 308 308 318 320 324 336 341 335 339 334 328 342 335 318 322 337 348 347 340 339 335 331 332 329 327 332 334 332 330 325 320 316 312 312 310 305 305 307 290 275 332 333 309 299 305 303 299 295 294 288 272 265
160 163 166 166 161 154 143 142 143 141 163 3 25 32 29 25 21 20 17 11 4 2 2 360 359 353 347 347 339 332 326 312 312 313 312 319 318 320 331 336 332 333 328 325 333 334 324 326 339 348 344 339 338 334 331 330 324 320 325 329 325 322 320 318 317 314 308 299 294 293 292 294 305 321 321 296 301 300 293 295 294 295 297 291 286
183 187 192 192 184 178 179 186 187 177 199 357 15 19 23 19 16 14 8 4 357 353 355 354 351 346 341 336 322 315 312 303 303 307 309 311 309 317 326 327 327 327 323 323 326 327 324 327 338 342 338 336 335 332 329 324 322 323 323 322 321 319 318 318 316 315 310 299 294 294 294 298 303 308 305 292 302 293 284 289 289 288 289 288 292
196 202 207 206 201 196 198 207 212 202 181 9 355 2 14 14 13 5 350 347 346 342 344 346 342 337 332 321 306 303 302 299 300 302 305 304 305 315 321 321 323 320 318 320 322 326 326 328 334 335 331 332 331 326 323 321 322 324 321 319 318 315 313 313 311 311 310 305 305 304 301 302 302 302 302 300 302 297 291 290 287 286 285 283 285
215 221 218 211 207 205 208 221 237 248 275 298 311 339 356 2 4 348 323 313 325 331 330 334 335 328 321 308 297 299 296 295 297 298 300 300 305 315 316 318 320 317 315 317 321 323 322 326 332 331 326 328 327 321 320 321 321 319 317 316 314 310 309 308 307 307 307 307 309 308 305 304 302 300 299 297 288 284 291 291 290 288 283 281 281
231 234 231 219 213 217 225 237 249 258 265 269 281 291 302 318 313 309 301 283 299 320 319 321 327 319 308 294 290 295 295 293 292 291 295 296 303 314 315 316 318 316 315 316 319 317 316 323 329 327 324 325 322 319 319 318 317 316 313 311 308 307 305 302 301 302 301 301 302 302 301 301 300 296 293 294 287 278 282 290 295 296 289 285 285
231 235 234 226 224 229 235 242 245 250 255 254 251 240 242 258 261 270 283 275 284 305 311 312 316 310 297 284 285 290 290 291 289 286 290 292 296 308 313 313 313 312 312 314 315 316 318 324 327 322 321 321 317 317 316 313 313 312 309 307 304 301 300 299 298 298 298 298 296 296 297 295 296 296 297 302 301 291 292 295 297 301 298 293 291
228 227 224 219 224 229 232 238 239 242 245 239 231 227 228 232 241 251 262 272 277 288 301 304 304 301 289 280 282 283 283 284 284 284 285 286 288 298 308 309 309 308 309 311 311 313 317 320 321 319 317 315 314 313 311 310 309 308 306 304 302 299 298 298 297 297 297 297 296 293 293 293 294 296 300 305 305 303 303 298 299 305 299 292 293
228 222 219 217 222 227 230 234 235 236 236 230 226 225 221 221 232 245 255 270 277 281 291 293 290 289 282 281 282 278 279 280 281 282 280 279 281 292 303 305 305 305 306 308 309 310 313 316 316 314 312 311 311 310 309 309 307 307 306 303 301 299 298 298 296 296 295 295 296 294 291 290 290 291 296 300 302 304 303 296 297 300 293 290 294
227 219 221 222 225 229 231 233 234 234 231 227 226 225 219 220 230 246 259 272 279 279 281 281 281 279 275 279 281 276 277 277 278 280 278 276 276 285 298 300 299 300 301 303 305 306 307 311 311 308 308 309 309 309 308 308 307 306 304 302 301 300 299 299 297 296 295 293 293 294 292 289 288 288 290 292 294 296 297 298 302 298 289 290 293
226 222 226 229 230 232 233 234 234 233 230 227 227 226 224 225 233 249 261 269 277 278 276 273 273 270 268 274 278 274 272 272 274 278 276 274 274 283 292 295 294 295 297 300 300 302 305 308 308 306 308 308 308 307 306 306 306 304 302 301 300 300 299 299 297 296 296 294 294 293 292 289 287 286 286 286 288 290 294 299 304 305 296 292 291
225 225 230 233 233 232 233 235 235 233 230 229 228 227 225 227 236 251 260 263 272 277 272 266 265 264 263 269 273 269 267 271 274 273 273 273 276 282 288 290 291 292 295 297 297 301 305 306 306 305 307 306 306 306 306 306 306 303 302 301 299 299 298 297 297 295 294 293 293 292 291 289 286 285 284 284 286 288 291 295 298 303 303 299 297
229 227 229 230 231 230 232 234 234 232 230 231 230 226 225 230 241 249 252 257 265 271 269 263 260 260 261 264 266 265 266 270 272 271 272 274 275 278 282 286 288 290 292 295 297 300 303 304 305 304 305 305 305 306 306 305 304 302 301 299 298 298 296 294 293 292 291 290 290 289 288 287 285 283 282 282 284 285 286 290 293 297 298 297 297
232 232 230 228 226 227 231 233 234 232 230 231 229 226 227 234 242 243 246 252 257 263 268 262 256 256 259 260 259 260 265 267 268 270 271 272 273 275 280 283 285 287 291 293 294 298 301 302 303 302 303 304 304 306 305 304 304 302 300 298 297 297 294 292 291 289 288 288 287 287 285 283 282 282 280 280 280 281 283 285 286 288 289 288 290
234 235 235 232 227 226 229 232 234 232 229 229 227 226 229 234 239 240 245 253 254 257 262 258 253 255 256 256 256 259 264 265 266 269 270 271 272 274 278 281 283 285 287 290 293 297 299 300 300 300 301 301 302 304 304 303 302 300 298 297 296 295 292 290 290 287 286 286 285 284 282 280 280 280 279 278 278 277 279 280 281 282 282 283 286
233 232 234 238 237 235 233 234 235 229 225 225 226 227 229 231 235 238 243 251 252 251 254 254 253 253 252 253 256 260 263 264 267 269 269 269 270 274 278 279 282 283 284 289 293 294 296 297 298 298 298 298 300 302 302 302 300 297 296 295 294 293 290 289 288 286 284 284 282 281 279 277 278 278 276 275 275 275 275 276 277 278 277 278 280
231 228 231 236 239 238 235 236 235 225 219 222 224 225 228 228 231 236 241 247 250 250 251 252 251 249 249 252 255 259 262 264 267 267 266 267 270 274 277 277 278 280 283 288 291 291 293 295 296 295 295 296 298 299 300 300 298 296 294 292 292 291 289 287 286 285 283 282 280 280 278 276 276 275 274 273 273 272 272 273 273 274 273 272 273
230 228 230 233 236 236 232 230 224 212 211 218 222 225 228 229 232 237 240 243 249 251 249 248 247 246 248 251 254 257 260 262 265 264 264 267 271 273 274 275 276 279 283 287 288 289 291 292 293 293 293 295 295 296 297 296 294 293 291 291 291 289 287 285 284 283 282 280 279 278 277 276 275 274 272 271 271 270 270 270 269 268 268 267 266
230 229 232 234 238 242 236 218 202 201 208 217 224 228 229 230 232 234 237 243 250 251 247 244 244 246 248 250 251 254 257 260 260 261 263 265 268 269 270 272 275 278 282 283 285 287 288 289 291 291 290 292 292 292 293 292 290 289 289 289 288 287 284 283 282 281 280 279 277 276 276 275 274 273 272 271 271 271 269 267 266 264 264 265 263
234 236 241 243 246 252 251 226 202 202 208 213 220 225 226 231 233 233 237 244 249 248 245 243 244 247 247 247 250 253 255 257 257 259 261 262 263 266 267 270 274 276 279 281 283 284 286 288 288 288 289 289 290 290 290 290 288 287 287 287 286 284 282 280 279 278 278 277 276 274 273 273 272 272 272 271 270 269 267 264 265 264 263 264 264
245 247 251 251 251 253 253 241 219 212 215 219 221 218 221 230 233 234 238 243 246 245 243 243 244 246 246 246 249 252 253 255 255 257 258 259 262 265 266 268 271 274 277 278 281 283 285 287 286 287 287 287 288 289 289 289 288 287 287 286 285 283 281 280 278 277 277 276 275 273 272 271 271 271 270 269 267 266 265 264 264 265 264 265 266
269 264 259 256 255 253 255 254 239 224 222 227 226 216 216 227 232 236 239 240 244 244 242 243 244 244 246 246 248 250 251 253 254 255 257 259 262 262 264 267 270 273 274 276 280 283 284 284 284 285 286 286 287 287 287 288 288 288 288 286 286 284 281 280 279 278 278 277 274 272 271 270 269 268 267 267 267 266 265 264 263 264 264 264 265
277 276 271 267 266 263 263 266 265 251 234 229 228 217 213 222 232 237 239 240 244 243 241 242 244 245 246 246 248 250 251 253 253 254 255 257 260 261 264 268 269 270 272 276 281 282 282 282 283 284 285 285 286 286 287 288 287 288 288 287 286 284 282 281 280 280 279 278 276 274 272 271 269 269 268 268 267 266 265 265 264 264 264 262 262
271 275 275 274 273 268 268 270 275 275 257 238 230 219 212 220 232 238 240 243 244 243 241 242 243 244 245 246 250 251 251 251 251 252 255 258 260 261 263 266 268 270 273 277 280 281 282 283 283 284 285 286 286 287 288 289 289 290 290 289 288 285 284 284 284 285 285 283 281 279 277 275 273 272 272 270 268 267 265 265 265 264 262 260 259
289 290 289 288 284 277 276 279 282 281 270 249 234 220 212 220 232 238 241 243 244 242 241 242 242 243 245 247 250 251 250 250 251 254 258 259 259 261 264 267 269 270 273 277 280 283 285 287 288 289 290 291 289 288 290 292 292 293 292 290 287 286 285 285 285 286 286 285 283 281 279 279 277 277 277 276 274 272 267 264 265 265 262 258 255
298 298 295 292 290 286 284 286 286 282 275 264 249 227 212 219 231 237 241 243 244 242 241 242 243 244 246 248 249 250 251 251 253 257 259 259 260 262 265 267 268 269 274 279 284 288 290 291 292 293 293 293 290 291 295 294 288 286 286 285 284 284 284 282 280 280 280 281 282 281 280 281 281 280 280 279 278 276 270 263 262 262 260 256 252
295 296 294 291 290 289 287 285 281 275 272 272 260 235 218 225 235 240 245 247 245 242 242 243 245 246 247 248 250 251 251 252 254 257 257 258 260 261 264 268 270 273 279 284 287 289 290 291 291 292 293 292 293 297 299 292 285 284 284 282 282 282 281 279 278 277 277 279 280 279 278 279 278 278 278 278 277 277 272 265 262 262 261 257 252
298 299 297 294 290 286 285 284 282 278 275 271 256 229 219 229 238 244 249 249 244 242 243 244 245 246 247 249 251 251 251 252 253 254 255 257 259 262 266 270 272 276 282 285 286 287 289 292 293 293 294 294 297 301 300 291 287 288 286 284 285 285 284 282 280 279 278 279 278 277 276 275 275 275 276 276 275 276 276 273 270 270 270 268 263
306 307 303 299 293 285 278 276 277 275 270 260 240 223 226 234 241 247 249 246 242 241 243 245 247 248 248 250 251 250 249 250 251 253 256 258 260 263 267 270 272 277 281 284 285 287 290 294 295 295 296 296 299 304 302 293 289 289 289 289 290 290 290 289 286 283 281 279 278 277 277 278 279 279 278 278 278 278 279 278 276 274 275 278 278
311 309 306 300 295 289 283 278 273 266 258 250 238 231 234 241 245 248 247 243 242 242 244 246 247 247 249 249 249 249 249 250 252 255 258 258 260 263 267 271 274 278 281 283 286 288 291 294 295 295 296 295 300 306 303 293 289 290 293 295 294 295 296 295 292 288 284 281 280 280 281 280 281 281 280 280 280 280 280 280 278 277 276 278 280
303 298 293 287 286 285 285 285 277 261 248 244 238 230 230 237 243 245 244 243 243 244 246 247 247 248 248 248 248 249 249 250 254 256 256 257 259 264 270 274 276 279 281 283 286 288 290 293 295 295 294 294 300 306 301 292 289 292 297 301 300 300 299 297 295 291 286 283 282 282 282 282 282 282 280 279 278 278 279 279 278 279 281 282 282
295 296 293 291 287 282 282 287 281 259 239 232 230 226 227 236 242 243 243 243 243 244 244 246 247 247 247 248 249 249 249 252 255 254 254 257 261 267 273 276 278 280 282 283 284 286 288 291 293 294 293 293 300 305 298 291 292 296 300 302 301 301 299 297 295 291 287 285 284 284 285 285 284 283 282 281 280 280 281 281 283 286 288 288 287
306 305 303 302 297 285 282 290 283 250 227 219 223 229 235 241 243 242 243 242 240 242 244 246 248 249 249 250 249 248 250 253 253 253 256 260 263 269 275 278 279 281 281 282 284 285 287 289 291 292 291 291 298 304 300 294 296 301 301 300 300 299 297 294 291 288 286 286 286 286 287 286 285 285 286 286 285 285 285 287 291 293 292 289 289
313 308 306 307 301 288 281 282 267 228 219 224 236 240 239 241 241 240 241 241 240 243 246 249 251 251 251 251 249 250 252 254 254 255 258 261 265 270 275 278 280 281 282 283 285 286 288 289 289 290 291 290 294 301 301 296 297 301 301 300 300 298 295 293 291 290 289 289 289 289 289 287 287 289 290 289 288 289 291 294 296 294 291 289 290
316 314 314 314 307 296 283 261 226 219 233 244 249 245 240 240 241 241 241 240 241 245 249 252 253 252 253 253 252 253 255 255 256 257 258 262 267 271 275 279 281 281 282 283 285 285 286 287 287 287 288 289 292 299 304 300 298 299 300 301 301 298 295 296 297 295 292 291 290 291 292 292 292 294 294 293 293 293 294 296 296 293 291 290 291
321 322 323 324 317 303 286 243 222 232 245 251 247 241 238 240 242 241 240 241 243 249 254 256 256 256 256 256 256 257 258 258 258 259 261 263 268 272 276 280 281 280 280 280 281 281 282 284 285 286 288 291 295 301 306 303 297 297 300 302 302 301 300 301 299 294 292 294 296 298 299 299 298 297 296 295 295 294 294 297 297 295 292 290 291
328 327 325 322 317 304 279 251 243 246 253 255 248 241 240 243 243 241 241 244 249 255 259 258 256 256 257 259 260 260 261 260 259 260 261 263 269 275 279 280 281 280 279 278 279 281 281 283 286 287 289 294 299 302 305 303 296 296 301 303 303 304 303 299 296 295 300 306 306 303 301 300 298 295 294 294 294 295 298 301 301 297 293 291 294
329 328 325 323 321 317 295 274 266 261 258 258 252 247 247 248 247 246 248 252 256 260 260 257 255 257 259 261 261 260 259 260 261 260 260 265 273 278 280 280 280 278 278 277 279 281 282 283 287 289 291 295 300 303 303 299 295 296 300 301 302 304 302 300 304 312 315 311 306 302 300 299 297 294 292 294 298 302 306 308 306 301 298 299 304
330 330 334 339 340 335 321 299 285 274 267 264 261 259 256 253 252 254 257 259 261 262 261 257 257 258 259 259 259 260 260 261 262 262 264 270 277 280 280 280 279 277 277 277 279 281 282 283 286 288 290 292 295 298 298 295 293 296 299 300 302 304 305 308 317 322 316 309 305 302 298 296 295 295 298 305 309 312 313 312 308 306 306 308 311
332 329 334 337 332 328 325 316 302 286 278 279 275 269 264 260 261 264 264 263 265 266 262 259 258 258 260 262 264 265 265 264 264 266 268 272 276 279 279 279 278 276 275 274 276 277 278 279 281 283 284 286 288 292 293 291 291 294 297 299 303 306 309 313 317 315 310 306 302 298 296 298 301 305 310 314 315 314 314 312 310 310 312 312 313
328 325 327 329 325 323 322 317 308 295 289 295 290 278 271 268 269 271 269 267 270 270 264 260 260 261 265 269 269 268 268 267 268 269 269 271 274 276 277 278 278 275 271 270 272 274 274 275 277 278 280 282 285 287 288 289 291 292 294 296 301 306 308 309 309 307 305 302 299 298 301 304 307 310 313 312 311 310 310 311 311 312 313 313 311
328 327 331 333 329 324 320 316 312 306 302 304 300 290 282 278 275 274 273 274 275 271 266 264 264 266 269 271 270 269 269 270 271 271 270 270 273 273 273 274 274 271 267 267 268 270 272 273 274 275 277 281 284 284 284 287 291 291 289 291 296 300 300 300 301 301 300 299 298 300 302 304 305 307 307 306 306 307 310 312 313 313 313 313 309
334 334 335 334 330 325 323 322 324 328 328 318 305 295 290 287 281 278 278 278 274 268 265 266 267 270 272 272 271 271 271 272 272 272 270 270 271 270 269 268 268 267 265 265 266 268 270 271 272 275 278 280 281 282 282 285 289 289 287 288 291 292 292 294 296 296 295 296 297 297 300 303 306 305 303 301 304 308 311 314 315 315 315 313 309
340 334 333 334 331 328 330 334 335 339 336 322 307 297 294 290 285 282 280 276 270 267 267 268 269 271 273 272 272 271 271 271 271 270 268 267 268 267 264 264 266 266 263 263 266 267 268 270 271 274 278 279 279 280 280 282 285 285 284 286 288 288 290 292 293 293 294 295 296 299 305 308 308 306 304 305 309 311 313 316 317 318 318 317 315
337 331 331 334 332 330 336 341 340 337 328 316 306 301 298 294 289 284 280 276 272 271 271 271 272 273 273 273 272 271 270 270 271 270 269 268 268 268 267 269 273 273 269 267 267 268 270 272 271 271 272 273 276 279 281 281 282 283 286 289 292 293 294 295 293 294 296 298 301 306 310 310 308 308 310 312 313 315 316 317 320 321 321 321 321
335 331 331 334 333 333 337 340 338 332 323 313 307 304 302 300 294 288 283 281 279 276 273 273 274 275 274 274 273 271 271 271 271 270 269 270 273 272 270 272 278 281 280 274 267 266 270 272 270 270 270 270 272 278 283 284 285 289 294 298 299 299 298 296 295 297 299 301 306 309 309 307 307 310 312 313 314 316 317 318 320 322 323 323 322
336 335 335 338 340 341 341 340 336 329 322 313 308 306 307 305 301 295 290 286 283 279 275 275 276 276 276 276 273 271 272 272 270 269 269 271 276 279 278 277 278 281 283 280 274 273 276 277 274 274 275 274 274 279 283 285 290 296 301 303 303 301 298 295 298 303 305 306 308 308 305 305 308 310 311 311 313 315 316 318 320 321 322 324 322